一网星座-0160星 (ONEWEB-0160 )

导读

ONEWEB-0160是英国一网(OneWeb)星座的低轨宽带通信卫星,于2021年3月25日发射入轨。该卫星属于OneWeb一期组网卫星,重量约147.5公斤,运行在近地轨道,配备Ku/Ka波段天线,单星通信能力约7.5Gbps,可提供低延迟宽带接入服务。它是OneWeb全球卫星互联网星座部署的重要组成部分,助力实现全球范围内的互联网覆盖,为偏远地区、航空、海事等场景提供 connectivity 支持。

Basic Information
目录编号:
48060
目录名称:
ONEWEB-0160
国际标识:
2021-025U
轨道中心:
EARTH
卫星名称:
一网星座-0160星
卫星全名:
一网星座-0160星 (ONEWEB-0160 )
卫星状态:
在轨 (已飞行1907 天)
发射日期:
2021-03-25 UTC
国别 :
英国 (GB)
星等 :
--
Orbit Information
数据来源 国际轨道数据 AOE轨道数据
星历时间 2026-06-14T06:32:10+0800
13小时前
查看轨道信息
2026-06-10T11:00:00+0800
4天前
查看轨道信息
半长轴 7587.899km 7587.923km
偏心率 0.000149 0.0002392
轨道倾角 87.895° 87.897°
近地点辐角 73.026° 83.116°
升交点赤经 320.873° 321.633°
平近点角 287.103° 252.720°
近地点 1208.631km 1207.97km
远地点 1210.893km 1211.602km
周期 109.633分钟 109.634分钟
每日圈数 13.134709 13.134649
Detailed Information
平衡模式:
三轴稳定
覆盖范围:
全球
运营商:
一网卫星公司
运营商所在国:
英国
制造商(研发单位):
一网卫星公司
制造商所在国:
英国
使用方式:
暂无
Satellite Introduction
OneWeb卫星网络由648颗重约125公斤的微型卫星组成,运行在1200公里的轨道上。 每颗卫星都能够提供至少每秒8千兆位的吞吐量,以使用其高吞吐量的Ku频段有效载荷为家庭和移动平台提供互联网接入。该卫星仍在工作。
2D Orbit Map
3D Orbit Map
Orbit Altitude Analysis Chart
Orbit Inclination Analysis Chart
Orbit Comprehensive Analysis Chart
View Comprehensive Chart